This demonstration page uses our WeatherBlox Daily Observations layout. Learn more.

Left ArrowRight Arrow

Hourly Observations for February 11, 2016

Temp ( °F °C ) Dew Point ( °F °C ) Humidity (%) Winds ( mph kmh ) Pressure ( in mb ) Visibility ( mi km ) Precip ( " mm )
12:54 am 00:54 Partly Cloudy 20 -6.7 17 -8.3 89 89 N 7 11 30.24 1024 9 14 0.00 0.00
1:54 am 01:54 Clear 19 -7.2 16 -8.9 88 88 N 12 19 30.25 1024 10 16 0.00 0.00
2:54 am 02:54 Clear 18 -7.8 14 -10 84 84 N 10 17 30.29 1026 10 16 0.00 0.00
3:10 am 03:10 Mostly Cloudy 18 -8 14 -10 86 86 N 9 15 30.36 1028 10 16 0.00 0.00
3:54 am 03:54 Cloudy 18 -7.8 14 -10 84 84 N 8 13 30.29 1026 10 16 0.00 0.00
4:54 am 04:54 Mostly Cloudy 16 -8.9 13 -10.6 88 88 N 8 13 30.30 1026 10 16 0.00 0.00
5:01 am 05:01 Partly Cloudy 16 -8.9 13 -10.6 88 88 N 8 13 30.39 1029 9 14 0.00 0.00
5:54 am 05:54 Cloudy 18 -7.8 14 -10 84 84 NNE 8 13 30.33 1027 10 16 0.00 0.00
6:49 am 06:49 Cloudy 19 -7 14 -10 79 79 NE 8 13 30.39 1029 10 16 0.00 0.00
6:54 am 06:54 Cloudy 19 -7.2 14 -10 81 81 NE 7 11 30.34 1028 10 16 0.00 0.00
7:54 am 07:54 Cloudy 19 -7.2 14 -10 81 81 NE 8 13 30.35 1028 10 16 0.00 0.00
8:54 am 08:54 Cloudy 19 -7.2 15 -9.4 84 84 ESE 6 9 30.35 1028 7 11 0.00 0.00
9:54 am 09:54 Cloudy 21 -6.1 15 -9.4 78 78 SE 5 7 30.35 1028 7 11 0.00 0.00
10:54 am 10:54 Cloudy with Haze 22 -5.6 17 -8.3 82 82 ESE 5 7 30.35 1028 6 10 0.00 0.00
11:54 am 11:54 Cloudy 24 -4.4 18 -7.8 77 77 SSE 6 9 30.35 1028 9 14 0.00 0.00
12:54 pm 12:54 Cloudy 25 -3.9 19 -7.2 78 78 S 8 13 30.30 1026 8 13 0.00 0.00
1:54 pm 13:54 Cloudy 26 -3.3 21 -6.1 81 81 S 9 15 30.26 1025 7 11 0.00 0.00
2:54 pm 14:54 Cloudy with Haze 27 -2.8 22 -5.6 81 81 S 10 17 30.20 1023 6 10 0.00 0.00
3:54 pm 15:54 Cloudy 28 -2.2 22 -5.6 78 78 SSW 12 19 30.21 1023 7 11 0.00 0.00
4:54 pm 16:54 Cloudy 28 -2.2 23 -5 81 81 SSW 8 13 30.23 1024 7 11 0.00 0.00
5:54 pm 17:54 Cloudy 29 -1.7 23 -5 78 78 SSW 5 7 30.23 1024 8 13 0.00 0.00
6:54 pm 18:54 Cloudy 29 -1.7 24 -4.4 82 82 S 5 7 30.24 1024 9 14 0.00 0.00
7:54 pm 19:54 Cloudy 29 -1.7 24 -4.4 82 82 Calm 30.24 1024 9 14 0.00 0.00
8:54 pm 20:54 Cloudy 30 -1.1 24 -4.4 79 79 E 3 6 30.24 1024 9 14 0.00 0.00
9:54 pm 21:54 Cloudy 30 -1.1 24 -4.4 79 79 ENE 6 9 30.25 1024 8 13 0.00 0.00
10:54 pm 22:54 Cloudy with Haze 29 -1.7 24 -4.4 82 82 E 5 7 30.25 1024 6 10 0.00 0.00
11:54 pm 23:54 Cloudy with Haze 30 -1.1 25 -3.9 82 82 N 5 7 30.27 1025 6 10 0.00 0.00

Powered by AerisWeather